APJ166 RJFU-RJBB

Flight info

Callsign APJ166
Flight time 0h 50m
Altitude 37000
Route DGC MARCO WASYU ATMUG
Aircraft A20N/M-SDE2E3FGHIJ1RWXY/LB1

Departure

Time 2026-05-06 06:42
Airport Nagasaki Airport (RJFU)

Arrival

Time 2026-05-06 07:32
Airport Kansai International Airport (RJBB)
Time Latitude Longitude Altitude Speed Heading
2026-05-06 06:18 32.91473 129.92088 26 ft 0 kts 48°
2026-05-06 06:33 32.91470 129.92085 26 ft 2 kts 48°
2026-05-06 06:34 32.91460 129.92072 25 ft 2 kts 47°
2026-05-06 06:34 32.91450 129.92058 25 ft 2 kts 47°
2026-05-06 06:34 32.91439 129.92044 25 ft 2 kts 48°
2026-05-06 06:34 32.91429 129.92032 24 ft 2 kts 47°
2026-05-06 06:35 32.91425 129.92017 24 ft 2 kts 102°
2026-05-06 06:35 32.91429 129.92004 24 ft 0 kts 134°
2026-05-06 06:35 32.91435 129.91998 24 ft 0 kts 138°
2026-05-06 06:35 32.91436 129.91998 24 ft 0 kts 138°
2026-05-06 06:37 32.91432 129.92001 24 ft 3 kts 138°
2026-05-06 06:38 32.91400 129.92011 24 ft 6 kts 188°
2026-05-06 06:38 32.91351 129.92009 24 ft 7 kts 172°
2026-05-06 06:38 32.91304 129.92040 24 ft 7 kts 137°
2026-05-06 06:38 32.91261 129.92085 25 ft 8 kts 138°
2026-05-06 06:39 32.91216 129.92133 25 ft 9 kts 139°
2026-05-06 06:39 32.91167 129.92184 26 ft 9 kts 139°
2026-05-06 06:39 32.91108 129.92247 26 ft 14 kts 138°
2026-05-06 06:39 32.91016 129.92345 27 ft 18 kts 138°
2026-05-06 06:40 32.90921 129.92445 28 ft 18 kts 138°
2026-05-06 06:40 32.90831 129.92531 28 ft 14 kts 167°
2026-05-06 06:40 32.90751 129.92474 27 ft 14 kts 234°
2026-05-06 06:40 32.90721 129.92387 27 ft 9 kts 301°
2026-05-06 06:41 32.90744 129.92362 28 ft 4 kts 319°
2026-05-06 06:41 32.90810 129.92291 28 ft 37 kts 317°
2026-05-06 06:41 32.91198 129.91878 21 ft 110 kts 319°
2026-05-06 06:41 32.91922 129.91104 69 ft 162 kts 317°
2026-05-06 06:42 32.92799 129.90190 521 ft 175 kts 319°
2026-05-06 06:42 32.93740 129.89238 1217 ft 179 kts 318°
2026-05-06 06:42 32.94648 129.88277 2008 ft 176 kts 316°
2026-05-06 06:42 32.95570 129.87270 2450 ft 190 kts 317°
2026-05-06 06:43 32.96596 129.86154 2883 ft 208 kts 317°
2026-05-06 06:43 32.97706 129.84959 3327 ft 225 kts 317°
2026-05-06 06:43 32.98927 129.83650 3702 ft 248 kts 317°
2026-05-06 06:43 33.00286 129.82259 4213 ft 266 kts 326°
2026-05-06 06:44 33.02037 129.81509 4911 ft 276 kts 356°
2026-05-06 06:44 33.03919 129.81856 5813 ft 277 kts 24°
2026-05-06 06:44 33.05445 129.83212 6683 ft 279 kts 53°
2026-05-06 06:44 33.06243 129.85265 7460 ft 283 kts 81°
2026-05-06 06:45 33.06135 129.87598 8255 ft 287 kts 104°
2026-05-06 06:45 33.05645 129.89887 9053 ft 292 kts 104°
2026-05-06 06:45 33.05152 129.92250 9642 ft 296 kts 104°
2026-05-06 06:45 33.04668 129.94647 9951 ft 299 kts 104°
2026-05-06 06:46 33.04183 129.97075 10010 ft 300 kts 104°
2026-05-06 06:46 33.03705 129.99498 10013 ft 302 kts 104°
2026-05-06 06:46 33.03222 130.01942 10019 ft 301 kts 104°
2026-05-06 06:46 33.02741 130.04375 10143 ft 306 kts 104°
2026-05-06 06:47 33.02239 130.06917 10496 ft 325 kts 104°
2026-05-06 06:47 33.01711 130.09598 10883 ft 343 kts 103°
2026-05-06 06:47 33.01152 130.12419 11287 ft 360 kts 104°
2026-05-06 06:47 33.00568 130.15381 11895 ft 369 kts 104°
2026-05-06 06:48 32.99976 130.18368 12603 ft 374 kts 104°
2026-05-06 06:48 32.99381 130.21373 13280 ft 380 kts 103°
2026-05-06 06:48 32.98773 130.24429 13929 ft 385 kts 103°
2026-05-06 06:48 32.98203 130.27574 14600 ft 390 kts 98°
2026-05-06 06:49 32.98045 130.30780 15303 ft 394 kts 87°
2026-05-06 06:49 32.98369 130.34019 15976 ft 396 kts 78°
2026-05-06 06:49 32.98938 130.37242 16694 ft 398 kts 76°
2026-05-06 06:49 32.99540 130.40413 17318 ft 402 kts 76°
2026-05-06 06:50 33.00152 130.43681 17934 ft 406 kts 76°
2026-05-06 06:50 33.00758 130.46991 18540 ft 411 kts 76°
2026-05-06 06:50 33.01354 130.50293 19115 ft 415 kts 76°
2026-05-06 06:50 33.01952 130.53644 19727 ft 418 kts 76°
2026-05-06 06:51 33.02559 130.57071 20301 ft 421 kts 76°
2026-05-06 06:51 33.03156 130.60440 20861 ft 425 kts 76°
2026-05-06 06:51 33.03769 130.63922 21365 ft 430 kts 76°
2026-05-06 06:51 33.04381 130.67404 21886 ft 434 kts 77°
2026-05-06 06:52 33.05000 130.70909 22374 ft 439 kts 77°
2026-05-06 06:52 33.05628 130.74474 22877 ft 442 kts 77°
2026-05-06 06:52 33.06268 130.78104 23363 ft 446 kts 77°
2026-05-06 06:52 33.06908 130.81734 23761 ft 452 kts 78°
2026-05-06 06:53 33.07544 130.85370 24135 ft 458 kts 78°
2026-05-06 06:53 33.08201 130.89122 24484 ft 464 kts 79°
2026-05-06 06:53 33.08858 130.92920 24781 ft 472 kts 79°
2026-05-06 06:53 33.09528 130.96776 25053 ft 479 kts 80°
2026-05-06 06:54 33.10201 131.00662 25440 ft 483 kts 80°
2026-05-06 06:54 33.10872 131.04555 25848 ft 486 kts 81°
2026-05-06 06:54 33.11556 131.08517 26204 ft 491 kts 81°
2026-05-06 06:54 33.12244 131.12535 26559 ft 495 kts 81°
2026-05-06 06:55 33.12929 131.16524 26899 ft 498 kts 81°
2026-05-06 06:55 33.13634 131.20631 27092 ft 504 kts 82°
2026-05-06 06:55 33.14324 131.24666 27099 ft 505 kts 81°
2026-05-06 06:55 33.15022 131.28792 27103 ft 506 kts 81°
2026-05-06 06:56 33.15718 131.32883 27096 ft 506 kts 81°
2026-05-06 06:56 33.16421 131.37015 27093 ft 506 kts 81°
2026-05-06 06:56 33.17119 131.41109 27088 ft 506 kts 81°
2026-05-06 06:56 33.17812 131.45197 27092 ft 507 kts 81°
2026-05-06 06:57 33.18511 131.49322 27086 ft 508 kts 82°
2026-05-06 06:57 33.19210 131.53477 27085 ft 507 kts 81°
2026-05-06 06:57 33.19893 131.57541 27083 ft 507 kts 82°
2026-05-06 06:57 33.20586 131.61658 27088 ft 508 kts 81°
2026-05-06 06:58 33.21320 131.65776 27072 ft 509 kts 77°
2026-05-06 06:58 33.22513 131.69803 27087 ft 511 kts 69°
2026-05-06 06:58 33.23920 131.73679 27083 ft 511 kts 68°
2026-05-06 06:58 33.25364 131.77516 27078 ft 511 kts 67°
2026-05-06 06:59 33.26799 131.81392 27082 ft 511 kts 68°
2026-05-06 06:59 33.28202 131.85289 27082 ft 511 kts 68°
2026-05-06 06:59 33.29578 131.89203 27080 ft 511 kts 69°
2026-05-06 06:59 33.30940 131.93118 27082 ft 511 kts 69°
2026-05-06 07:00 33.32294 131.97047 27085 ft 511 kts 69°
2026-05-06 07:00 33.33643 132.00983 27086 ft 512 kts 70°
2026-05-06 07:00 33.34987 132.04903 27086 ft 512 kts 70°
2026-05-06 07:00 33.36329 132.08833 27081 ft 511 kts 69°
2026-05-06 07:01 33.37653 132.12718 27083 ft 512 kts 69°
2026-05-06 07:01 33.39007 132.16684 27084 ft 511 kts 69°
2026-05-06 07:01 33.40338 132.20592 27082 ft 512 kts 69°
2026-05-06 07:01 33.41684 132.24550 27082 ft 512 kts 69°
2026-05-06 07:02 33.43010 132.28453 27076 ft 512 kts 69°
2026-05-06 07:02 33.44356 132.32417 27074 ft 511 kts 70°
2026-05-06 07:02 33.45680 132.36333 27080 ft 512 kts 70°
2026-05-06 07:02 33.47006 132.40251 27078 ft 512 kts 69°
2026-05-06 07:03 33.48344 132.44215 27079 ft 512 kts 70°
2026-05-06 07:03 33.49680 132.48161 27075 ft 511 kts 70°
2026-05-06 07:03 33.51004 132.52092 27080 ft 511 kts 70°
2026-05-06 07:03 33.52323 132.56006 27080 ft 511 kts 70°
2026-05-06 07:04 33.53644 132.59944 27084 ft 512 kts 70°
2026-05-06 07:04 33.54978 132.63911 27083 ft 512 kts 70°
2026-05-06 07:04 33.56302 132.67865 27081 ft 512 kts 70°
2026-05-06 07:04 33.57635 132.71838 27085 ft 513 kts 70°
2026-05-06 07:05 33.58960 132.75789 27087 ft 512 kts 71°
2026-05-06 07:05 33.60287 132.79752 27093 ft 512 kts 70°
2026-05-06 07:05 33.61604 132.83697 27091 ft 512 kts 71°
2026-05-06 07:05 33.62935 132.87680 27097 ft 512 kts 71°
2026-05-06 07:06 33.64246 132.91629 27099 ft 512 kts 70°
2026-05-06 07:06 33.65568 132.95610 27093 ft 513 kts 71°
2026-05-06 07:06 33.66881 132.99562 27099 ft 512 kts 70°
2026-05-06 07:06 33.68203 133.03546 27101 ft 513 kts 70°
2026-05-06 07:07 33.69503 133.07475 27102 ft 513 kts 71°
2026-05-06 07:07 33.70834 133.11490 27100 ft 513 kts 71°
2026-05-06 07:07 33.72139 133.15448 27103 ft 513 kts 71°
2026-05-06 07:07 33.73444 133.19402 27107 ft 515 kts 71°
2026-05-06 07:08 33.74753 133.23379 27099 ft 516 kts 71°
2026-05-06 07:08 33.76084 133.27420 27105 ft 516 kts 70°
2026-05-06 07:08 33.77404 133.31433 27101 ft 518 kts 71°
2026-05-06 07:08 33.78718 133.35428 27102 ft 516 kts 71°
2026-05-06 07:09 33.80032 133.39432 27096 ft 516 kts 71°
2026-05-06 07:09 33.81348 133.43454 27096 ft 517 kts 71°
2026-05-06 07:09 33.82658 133.47455 27101 ft 518 kts 71°
2026-05-06 07:09 33.83979 133.51503 27094 ft 519 kts 71°
2026-05-06 07:10 33.85279 133.55496 27093 ft 519 kts 71°
2026-05-06 07:10 33.86600 133.59555 27098 ft 520 kts 71°
2026-05-06 07:10 33.87919 133.63609 27084 ft 521 kts 71°
2026-05-06 07:10 33.89228 133.67639 26663 ft 522 kts 71°
2026-05-06 07:11 33.90553 133.71725 25664 ft 528 kts 71°
2026-05-06 07:11 33.91647 133.75098 24915 ft 530 kts 70°
2026-05-06 07:11 33.92978 133.79222 24097 ft 530 kts 71°
2026-05-06 07:11 33.94299 133.83298 23562 ft 523 kts 70°
2026-05-06 07:12 33.95605 133.87334 23040 ft 515 kts 71°
2026-05-06 07:12 33.96895 133.91332 22527 ft 509 kts 70°
2026-05-06 07:12 33.98167 133.95287 22027 ft 503 kts 70°
2026-05-06 07:12 33.99410 133.99147 21573 ft 496 kts 70°
2026-05-06 07:13 34.00652 134.03030 21118 ft 489 kts 70°
2026-05-06 07:13 34.01854 134.06782 20713 ft 480 kts 70°
2026-05-06 07:13 34.03039 134.10483 20277 ft 473 kts 69°
2026-05-06 07:13 34.04217 134.14162 19846 ft 465 kts 69°
2026-05-06 07:14 34.05357 134.17725 19418 ft 458 kts 69°
2026-05-06 07:14 34.06488 134.21272 18996 ft 450 kts 69°
2026-05-06 07:14 34.07603 134.24768 18520 ft 445 kts 69°
2026-05-06 07:14 34.08717 134.28259 18058 ft 439 kts 69°
2026-05-06 07:15 34.09800 134.31663 17632 ft 433 kts 68°
2026-05-06 07:15 34.10872 134.35037 17181 ft 427 kts 68°
2026-05-06 07:15 34.11933 134.38374 16744 ft 422 kts 69°
2026-05-06 07:15 34.12971 134.41649 16270 ft 417 kts 68°
2026-05-06 07:16 34.13988 134.44862 15839 ft 412 kts 68°
2026-05-06 07:16 34.15013 134.48103 15371 ft 408 kts 68°
2026-05-06 07:16 34.16014 134.51263 14873 ft 404 kts 69°
2026-05-06 07:16 34.17008 134.54417 14397 ft 399 kts 68°
2026-05-06 07:17 34.18054 134.57446 13989 ft 392 kts 63°
2026-05-06 07:17 34.19431 134.60257 13518 ft 387 kts 53°
2026-05-06 07:17 34.21092 134.62820 13057 ft 382 kts 49°
2026-05-06 07:17 34.22797 134.65253 12573 ft 379 kts 49°
2026-05-06 07:18 34.24486 134.67647 12165 ft 373 kts 49°
2026-05-06 07:18 34.26142 134.70013 11945 ft 360 kts 49°
2026-05-06 07:18 34.27719 134.72287 11706 ft 351 kts 49°
2026-05-06 07:18 34.29295 134.74562 11248 ft 348 kts 49°
2026-05-06 07:19 34.30832 134.76787 10806 ft 346 kts 49°
2026-05-06 07:19 34.32355 134.78992 10353 ft 343 kts 50°
2026-05-06 07:19 34.33867 134.81187 10121 ft 333 kts 50°
2026-05-06 07:19 34.35307 134.83281 10039 ft 318 kts 50°
2026-05-06 07:20 34.36693 134.85294 9984 ft 304 kts 50°
2026-05-06 07:20 34.38043 134.87259 9699 ft 300 kts 50°
2026-05-06 07:20 34.39363 134.89178 9312 ft 299 kts 50°
2026-05-06 07:20 34.40698 134.91121 8952 ft 298 kts 50°
2026-05-06 07:21 34.42010 134.93030 8593 ft 296 kts 50°
2026-05-06 07:21 34.43328 134.94948 8242 ft 295 kts 50°
2026-05-06 07:21 34.44630 134.96845 7903 ft 293 kts 51°
2026-05-06 07:21 34.45921 134.98726 7572 ft 291 kts 51°
2026-05-06 07:22 34.47204 135.00600 7240 ft 289 kts 51°
2026-05-06 07:22 34.48492 135.02480 6918 ft 286 kts 51°
2026-05-06 07:22 34.49751 135.04318 6600 ft 284 kts 51°
2026-05-06 07:22 34.50999 135.06142 6282 ft 282 kts 52°
2026-05-06 07:23 34.52261 135.07989 5965 ft 280 kts 52°
2026-05-06 07:23 34.53497 135.09799 5662 ft 278 kts 52°
2026-05-06 07:23 34.54723 135.11595 5372 ft 275 kts 52°
2026-05-06 07:23 34.55924 135.13353 5078 ft 273 kts 52°
2026-05-06 07:24 34.57140 135.15135 4767 ft 270 kts 52°
2026-05-06 07:24 34.58332 135.16881 4460 ft 269 kts 52°
2026-05-06 07:24 34.59511 135.18611 4155 ft 267 kts 52°
2026-05-06 07:24 34.60504 135.20459 3990 ft 254 kts 72°
2026-05-06 07:25 34.60763 135.22502 3865 ft 240 kts 97°
2026-05-06 07:25 34.60527 135.24445 3728 ft 230 kts 103°
2026-05-06 07:25 34.60187 135.26291 3582 ft 221 kts 107°
2026-05-06 07:25 34.59745 135.28029 3441 ft 211 kts 111°
2026-05-06 07:26 34.59214 135.29649 3303 ft 202 kts 115°
2026-05-06 07:26 34.58610 135.31148 3173 ft 194 kts 119°
2026-05-06 07:26 34.57949 135.32520 3127 ft 180 kts 123°
2026-05-06 07:26 34.57267 135.33739 2960 ft 171 kts 126°
2026-05-06 07:27 34.56555 135.34845 2818 ft 159 kts 129°
2026-05-06 07:27 34.55852 135.35812 2691 ft 148 kts 133°
2026-05-06 07:27 34.55138 135.36688 2437 ft 145 kts 136°
2026-05-06 07:27 34.54390 135.37509 2242 ft 144 kts 139°
2026-05-06 07:28 34.53610 135.38274 2049 ft 144 kts 146°
2026-05-06 07:28 34.52661 135.38518 1837 ft 147 kts 193°
2026-05-06 07:28 34.51071 135.36905 1465 ft 151 kts 229°
2026-05-06 07:29 34.50431 135.35912 1500 ft 152 kts 229°
2026-05-06 07:29 34.49790 135.34917 1491 ft 142 kts 229°
2026-05-06 07:29 34.49180 135.33992 1500 ft 139 kts 228°
2026-05-06 07:29 34.48573 135.33089 1481 ft 139 kts 229°
2026-05-06 07:30 34.47956 135.32175 1302 ft 138 kts 229°
2026-05-06 07:30 34.47346 135.31271 1129 ft 138 kts 229°
2026-05-06 07:30 34.46742 135.30374 952 ft 137 kts 229°
2026-05-06 07:30 34.46143 135.29485 776 ft 136 kts 229°
2026-05-06 07:31 34.45548 135.28589 584 ft 136 kts 230°
2026-05-06 07:31 34.44948 135.27712 413 ft 135 kts 230°
2026-05-06 07:31 34.44357 135.26827 239 ft 135 kts 231°
2026-05-06 07:31 34.43763 135.25943 63 ft 134 kts 230°
2026-05-06 07:32 34.43195 135.25099 9 ft 116 kts 231°
2026-05-06 07:32 34.42795 135.24501 9 ft 66 kts 231°
2026-05-06 07:32 34.42589 135.24193 9 ft 39 kts 231°
2026-05-06 07:32 34.42485 135.23972 9 ft 23 kts 250°
2026-05-06 07:33 34.42452 135.23819 8 ft 14 kts 259°
2026-05-06 07:33 34.42465 135.23704 9 ft 14 kts 309°
2026-05-06 07:33 34.42536 135.23633 9 ft 13 kts 321°
2026-05-06 07:33 34.42611 135.23560 9 ft 14 kts 321°
2026-05-06 07:34 34.42688 135.23483 9 ft 14 kts 321°
2026-05-06 07:34 34.42771 135.23402 9 ft 16 kts 321°
2026-05-06 07:34 34.42860 135.23315 9 ft 17 kts 321°
2026-05-06 07:34 34.42958 135.23221 9 ft 18 kts 321°
2026-05-06 07:35 34.43058 135.23123 9 ft 18 kts 321°
2026-05-06 07:35 34.43159 135.23025 9 ft 18 kts 321°
2026-05-06 07:35 34.43261 135.22925 9 ft 18 kts 320°
2026-05-06 07:35 34.43360 135.22827 9 ft 18 kts 320°
2026-05-06 07:36 34.43462 135.22726 9 ft 18 kts 320°
2026-05-06 07:36 34.43562 135.22629 9 ft 17 kts 321°
2026-05-06 07:36 34.43652 135.22548 8 ft 14 kts 347°
2026-05-06 07:36 34.43730 135.22617 9 ft 15 kts 50°
2026-05-06 07:37 34.43799 135.22714 8 ft 15 kts 50°
2026-05-06 07:37 34.43866 135.22815 8 ft 11 kts 51°
2026-05-06 07:37 34.43865 135.22859 9 ft 6 kts 141°
2026-05-06 07:37 34.43833 135.22890 9 ft 5 kts 141°
2026-05-06 07:38 34.43818 135.22903 9 ft 0 kts 142°
2026-05-06 07:38 34.43809 135.22913 9 ft 1 kts 141°